Weather History for Spencer, IA

Change the Weather History Date:

Friday, May 2, 2014

  Actual Average Record
Temperature  
Mean Temperature 48 °F -  
Max Temperature 66 °F 66 °F 82 °F (1980)
Min Temperature 33 °F 39 °F 24 °F (2011)
Degree Days  
Heating Degree Days 16    
Moisture  
Dew Point 35 °F    
Average Humidity 63    
Maximum Humidity 92    
Minimum Humidity 30    
Precipitation  
Precipitation 0.00 in - - ()
Sea Level Pressure  
Sea Level Pressure 29.80 in    
Wind  
Wind Speed 12 mph (WNW)    
Max Wind Speed 28 mph    
Max Gust Speed 34 mph    
Visibility 10 miles    
Events      
Averages and records for this station are not official NWS values.
T = Trace of Precipitation, MM = Missing Value Source: NWS Daily Summary

Daily Weather History Graph

Daily Weather History Graph

Search for Another Location

Airport:

Trip Planner

Search our weather history database for the weather conditions in past years. The results will help you decide how hot, cold, wet, or windy it might be!

Date:

Astronomy

May. 02, 2014 Rise Set
Actual Time 6:12 AM CDT 8:23 PM CDT
Civil Twilight 5:41 AM CDT 8:54 PM CDT
Nautical Twilight 5:03 AM CDT 9:33 PM CDT
Astronomical Twilight 4:20 AM CDT 10:16 PM CDT
Moon 8:49 AM CDT (5/2) 11:48 PM CDT (5/2)
Length of Visible Light 15h 13m
Length of Day
14h 10m
Waxing Crescent, 12% of the Moon is Illuminated
May 2
Waxing Crescent
May 6
First Quarter
May 14
Full
May 21
Last Quarter
May 28
New

Hourly Weather History & Observations

Time (CDT) Temp. Windchill Dew Point Humidity Pressure Visibility Wind Dir Wind Speed Gust Speed Precip Events Conditions
12:53 AM 37.0 °F 30.4 °F 34.0 °F 89% 29.93 in 10.0 mi West 9.2 mph - N/A   Clear
1:53 AM 35.1 °F 28.6 °F 32.0 °F 89% 29.92 in 10.0 mi West 8.1 mph - N/A   Clear
2:53 AM 34.0 °F 27.2 °F 32.0 °F 92% 29.90 in 10.0 mi West 8.1 mph - N/A   Clear
3:53 AM 33.1 °F 27.7 °F 30.9 °F 92% 29.90 in 5.0 mi West 5.8 mph - N/A   Clear
4:53 AM 34.0 °F 29.8 °F 30.9 °F 89% 29.88 in 10.0 mi West 4.6 mph - N/A   Clear
5:53 AM 34.0 °F 28.8 °F 30.9 °F 89% 29.86 in 10.0 mi West 5.8 mph - N/A   Partly Cloudy
6:53 AM 35.1 °F 29.3 °F 32.0 °F 89% 29.85 in 10.0 mi West 6.9 mph - N/A   Clear
7:53 AM 39.9 °F 33.9 °F 34.0 °F 79% 29.83 in 10.0 mi WSW 9.2 mph - N/A   Mostly Cloudy
8:53 AM 48.0 °F - 37.9 °F 68% 29.80 in 10.0 mi SW 12.7 mph 21.9 mph N/A   Clear
9:53 AM 52.0 °F - 39.0 °F 61% 29.77 in 10.0 mi WSW 15.0 mph - N/A   Overcast
10:53 AM 57.9 °F - 37.9 °F 47% 29.73 in 10.0 mi WSW 21.9 mph 31.1 mph N/A   Mostly Cloudy
12:53 PM 64.9 °F - 43.0 °F 45% 29.70 in 10.0 mi West 23.0 mph 31.1 mph N/A   Clear
1:53 PM 64.0 °F - 37.9 °F 38% 29.70 in 10.0 mi NW 20.7 mph 33.4 mph N/A   Clear
2:53 PM 63.0 °F - 37.9 °F 40% 29.71 in 10.0 mi WNW 24.2 mph 34.5 mph N/A   Partly Cloudy
3:53 PM 64.9 °F - 36.0 °F 34% 29.71 in 10.0 mi NW 27.6 mph 34.5 mph N/A   Clear
4:53 PM 64.0 °F - 33.1 °F 31% 29.72 in 10.0 mi NW 21.9 mph 32.2 mph N/A   Clear
5:53 PM 64.0 °F - 34.0 °F 33% 29.73 in 10.0 mi NNW 23.0 mph 27.6 mph N/A   Partly Cloudy
6:53 PM 63.0 °F - 30.9 °F 30% 29.75 in 10.0 mi NNW 24.2 mph 31.1 mph N/A   Partly Cloudy
7:53 PM 57.9 °F - 34.0 °F 41% 29.77 in 10.0 mi North 11.5 mph - N/A   Clear
8:53 PM 50.0 °F - 36.0 °F 59% 29.78 in 10.0 mi NNW 6.9 mph - N/A   Clear
9:53 PM 45.0 °F 41.8 °F 35.1 °F 68% 29.81 in 10.0 mi NW 5.8 mph - N/A   Clear
10:53 PM 43.0 °F 38.8 °F 35.1 °F 74% 29.81 in 10.0 mi West 6.9 mph - N/A   Clear
11:53 PM 41.0 °F 35.2 °F 34.0 °F 76% 29.82 in 10.0 mi West 9.2 mph - N/A   Clear